#Datum;Uhrzeit;WR;Pac;DaySum;Status;WR;Pac;DaySum;Status;Pdc1;Udc;Temp;WR;Pac;DaySum;Status;Pdc1;Udc;Temp;WR;Pac;DaySum;Status;Pdc1;Udc;Temp;WR;Pac;DaySum;Status;Pdc1;Pdc2;Udc1;Udc2;Temp;WR;Pac;DaySum;Status;Pdc1;Pdc2;Udc1;Udc2;Temp;WR;Pac;DaySum;Status;Pdc1;Udc;Temp;WR;Pac;DaySum;Status;Pdc1;Udc;Temp;WR;Pac;DaySum;Status;Pdc1;Udc;Temp
13.06.19;23:55:00;1;278;8259;0;2;0;39295;0;0;0;0;3;0;25771;0;0;0;0;4;0;35043;0;0;0;0;5;0;74183;0;0;0;0;0;0;6;0;56300;0;0;0;0;0;0;7;0;44178;0;0;0;0;8;0;44186;0;0;0;0;9;0;24383;0;0;0;0
13.06.19;23:50:00;1;233;8236;0;2;0;39295;0;0;0;0;3;0;25771;0;0;0;0;4;0;35043;0;0;0;0;5;0;74183;0;0;0;0;0;0;6;0;56300;0;0;0;0;0;0;7;0;44178;0;0;0;0;8;0;44186;0;0;0;0;9;0;24383;0;0;0;0
13.06.19;23:45:00;1;233;8217;0;2;0;39295;0;0;0;0;3;0;25771;0;0;0;0;4;0;35043;0;0;0;0;5;0;74183;0;0;0;0;0;0;6;0;56300;0;0;0;0;0;0;7;0;44178;0;0;0;0;8;0;44186;0;0;0;0;9;0;24383;0;0;0;0
13.06.19;23:40:00;1;232;8197;0;2;0;39295;0;0;0;0;3;0;25771;0;0;0;0;4;0;35043;0;0;0;0;5;0;74183;0;0;0;0;0;0;6;0;56300;0;0;0;0;0;0;7;0;44178;0;0;0;0;8;0;44186;0;0;0;0;9;0;24383;0;0;0;0
13.06.19;23:35:00;1;268;8178;0;2;0;39295;0;0;0;0;3;0;25771;0;0;0;0;4;0;35043;0;0;0;0;5;0;74183;0;0;0;0;0;0;6;0;56300;0;0;0;0;0;0;7;0;44178;0;0;0;0;8;0;44186;0;0;0;0;9;0;24383;0;0;0;0
13.06.19;23:30:00;1;354;8155;0;2;0;39295;0;0;0;0;3;0;25771;0;0;0;0;4;0;35043;0;0;0;0;5;0;74183;0;0;0;0;0;0;6;0;56300;0;0;0;0;0;0;7;0;44178;0;0;0;0;8;0;44186;0;0;0;0;9;0;24383;0;0;0;0
13.06.19;23:25:00;1;320;8126;0;2;0;39295;0;0;0;0;3;0;25771;0;0;0;0;4;0;35043;0;0;0;0;5;0;74183;0;0;0;0;0;0;6;0;56300;0;0;0;0;0;0;7;0;44178;0;0;0;0;8;0;44186;0;0;0;0;9;0;24383;0;0;0;0
13.06.19;23:20:00;1;358;8098;0;2;0;39295;0;0;0;0;3;0;25771;0;0;0;0;4;0;35043;0;0;0;0;5;0;74183;0;0;0;0;0;0;6;0;56300;0;0;0;0;0;0;7;0;44178;0;0;0;0;8;0;44186;0;0;0;0;9;0;24383;0;0;0;0
13.06.19;23:15:00;1;418;8069;0;2;0;39295;0;0;0;0;3;0;25771;0;0;0;0;4;0;35043;0;0;0;0;5;0;74183;0;0;0;0;0;0;6;0;56300;0;0;0;0;0;0;7;0;44178;0;0;0;0;8;0;44186;0;0;0;0;9;0;24383;0;0;0;0
13.06.19;23:10:00;1;383;8034;0;2;0;39295;0;0;0;0;3;0;25771;0;0;0;0;4;0;35043;0;0;0;0;5;0;74183;0;0;0;0;0;0;6;0;56300;0;0;0;0;0;0;7;0;44178;0;0;0;0;8;0;44186;0;0;0;0;9;0;24383;0;0;0;0
13.06.19;23:05:00;1;364;8002;0;2;0;39295;0;0;0;0;3;0;25771;0;0;0;0;4;0;35043;0;0;0;0;5;0;74183;0;0;0;0;0;0;6;0;56300;0;0;0;0;0;0;7;0;44178;0;0;0;0;8;0;44186;0;0;0;0;9;0;24383;0;0;0;0
13.06.19;23:00:00;1;373;7971;0;2;0;39295;0;0;0;0;3;0;25771;0;0;0;0;4;0;35043;0;0;0;0;5;0;74183;0;0;0;0;0;0;6;0;56300;0;0;0;0;0;0;7;0;44178;0;0;0;0;8;0;44186;0;0;0;0;9;0;24383;0;0;0;0
13.06.19;22:55:00;1;457;7939;0;2;0;39295;0;0;0;0;3;0;25771;0;0;0;0;4;0;35043;0;0;0;0;5;0;74183;2;0;0;0;0;0;6;0;56300;2;0;0;0;0;0;7;0;44178;0;0;0;0;8;0;44186;0;0;0;0;9;0;24383;0;0;0;0
13.06.19;22:50:00;1;382;7905;0;2;0;39295;0;0;0;0;3;0;25771;0;0;0;0;4;0;35043;0;0;0;0;5;0;74183;2;0;0;0;0;0;6;0;56300;2;0;0;0;0;0;7;0;44178;0;0;0;0;8;0;44186;0;0;0;0;9;0;24383;0;0;0;0
13.06.19;22:45:00;1;381;7873;0;2;0;39295;0;0;0;0;3;0;25771;0;0;0;0;4;0;35043;0;0;0;0;5;0;74183;2;0;0;0;0;0;6;0;56300;2;0;0;0;0;0;7;0;44178;0;0;0;0;8;0;44186;0;0;0;0;9;0;24383;0;0;0;0
13.06.19;22:40:00;1;401;7841;0;2;0;39295;0;0;0;0;3;0;25771;0;0;0;0;4;0;35043;0;0;0;0;5;0;74183;2;0;0;0;0;0;6;0;56300;2;0;0;0;0;0;7;0;44178;0;0;0;0;8;0;44186;0;0;0;0;9;0;24383;0;0;0;0
13.06.19;22:35:00;1;301;7810;0;2;0;39295;0;0;0;0;3;0;25771;0;0;0;0;4;0;35043;0;0;0;0;5;0;74183;2;0;0;0;0;0;6;0;56300;2;0;0;0;0;0;7;0;44178;0;0;0;0;8;0;44186;0;0;0;0;9;0;24383;0;0;0;0
13.06.19;22:30:00;1;310;7785;0;2;0;39295;0;0;0;0;3;0;25771;0;0;0;0;4;0;35043;0;0;0;0;5;0;74183;2;0;0;0;0;0;6;0;56300;2;0;0;0;0;0;7;0;44178;0;0;0;0;8;0;44186;0;0;0;0;9;0;24383;0;0;0;0
13.06.19;22:25:00;1;337;7759;0;2;0;39295;0;0;0;0;3;0;25771;0;0;0;0;4;0;35043;0;0;0;0;5;0;74183;2;0;0;0;0;0;6;0;56300;2;0;0;0;0;0;7;0;44178;0;0;0;0;8;0;44186;0;0;0;0;9;0;24383;0;0;0;0
13.06.19;22:20:00;1;296;7730;0;2;0;39295;0;0;0;0;3;0;25771;0;0;0;0;4;0;35043;0;0;0;0;5;0;74183;2;0;0;0;0;0;6;0;56300;2;0;0;0;0;0;7;0;44178;0;0;0;0;8;0;44186;0;0;0;0;9;0;24383;0;0;0;0
13.06.19;22:15:00;1;220;7708;0;2;0;39295;0;0;0;0;3;0;25771;0;0;0;0;4;0;35043;0;0;0;0;5;0;74183;2;0;0;0;0;0;6;0;56300;2;0;0;0;0;0;7;0;44178;0;0;0;0;8;0;44186;0;0;0;0;9;0;24383;0;0;0;0
13.06.19;22:10:00;1;220;7690;0;2;0;39295;0;0;0;0;3;0;25771;0;0;0;0;4;0;35043;0;0;0;0;5;0;74183;2;0;0;0;0;0;6;0;56300;2;0;0;0;0;0;7;0;44178;0;0;0;0;8;0;44186;0;0;0;0;9;0;24383;0;0;0;0
13.06.19;22:05:00;1;221;7671;0;2;0;39295;0;0;0;0;3;0;25771;0;0;0;0;4;0;35043;0;0;0;0;5;0;74183;2;0;0;0;0;0;6;0;56300;2;0;0;0;0;0;7;0;44178;0;0;0;0;8;0;44186;0;0;0;0;9;0;24383;0;0;0;0
13.06.19;22:00:00;1;235;7653;0;2;0;39295;0;0;0;0;3;0;25771;0;0;0;0;4;0;35043;0;0;0;0;5;0;74183;2;0;0;0;0;0;6;0;56300;2;0;0;0;0;0;7;0;44178;0;0;0;0;8;0;44186;0;0;0;0;9;0;24383;0;0;0;0
13.06.19;21:55:00;1;312;7633;0;2;0;39295;0;0;0;0;3;0;25771;0;0;0;0;4;0;35043;0;0;0;0;5;0;74183;2;0;0;0;0;0;6;0;56300;2;0;0;0;0;0;7;0;44178;0;0;0;0;8;0;44186;0;0;0;0;9;0;24383;0;0;0;0
13.06.19;21:50:00;1;329;7607;0;2;0;39295;0;0;0;0;3;0;25771;0;0;0;0;4;0;35043;0;0;0;0;5;0;74183;2;0;0;0;0;0;6;0;56300;2;0;0;0;0;0;7;0;44178;0;0;0;0;8;0;44186;0;0;0;0;9;0;24383;0;0;0;0
13.06.19;21:45:00;1;389;7579;0;2;0;39295;0;0;0;0;3;0;25771;0;0;0;0;4;0;35043;0;0;0;0;5;0;74183;2;0;0;0;0;0;6;0;56300;2;0;0;0;0;0;7;0;44178;0;0;0;0;8;0;44186;0;0;0;0;9;0;24383;0;0;0;0
13.06.19;21:40:00;1;316;7547;0;2;0;39295;0;0;0;0;3;0;25771;0;0;0;0;4;0;35043;0;0;0;0;5;0;74183;2;0;0;0;0;0;6;0;56300;2;0;0;0;0;0;7;0;44178;0;0;0;0;8;0;44186;0;0;0;0;9;0;24383;0;0;0;0
13.06.19;21:35:00;1;273;7521;0;2;0;39295;0;0;0;0;3;0;25771;0;0;72;10;4;0;35043;0;0;0;0;5;0;74183;2;0;0;0;0;0;6;0;56300;2;0;0;0;0;0;7;0;44178;0;0;0;0;8;0;44186;0;0;0;0;9;0;24383;0;0;0;0
13.06.19;21:30:00;1;223;7497;0;2;0;39295;0;0;0;0;3;0;25771;6;0;278;36;4;0;35043;0;0;0;0;5;0;74183;2;0;0;0;0;0;6;0;56300;2;0;0;0;0;0;7;0;44178;0;0;0;0;8;0;44186;0;0;0;0;9;0;24383;0;0;0;0
13.06.19;21:25:00;1;260;7478;0;2;0;39295;2;0;263;34;3;0;25771;6;0;308;36;4;0;35043;2;0;81;34;5;0;74183;2;0;0;0;0;0;6;0;56300;1;0;0;0;0;0;7;0;44178;0;0;0;0;8;0;44186;0;0;0;0;9;0;24383;0;0;0;0
13.06.19;21:20:00;1;356;7456;0;2;0;39295;6;0;297;35;3;0;25771;6;0;358;36;4;0;35043;1;0;114;34;5;0;74183;2;0;0;168;166;33;6;0;56300;1;2;1;71;116;23;7;0;44178;0;0;46;6;8;0;44186;0;0;49;6;9;0;24383;0;0;104;11
13.06.19;21:15:00;1;303;7426;0;2;0;39295;6;0;325;35;3;0;25771;6;1;391;37;4;0;35043;1;0;153;35;5;0;74183;23;0;0;345;344;42;6;0;56300;23;5;4;381;260;40;7;0;44178;6;0;291;33;8;0;44186;6;0;295;32;9;0;24383;6;0;312;29
13.06.19;21:10:00;1;288;7401;0;2;0;39295;6;0;348;36;3;1;25771;6;3;424;37;4;0;35043;1;0;184;35;5;0;74183;23;0;0;372;491;42;6;0;56300;23;7;6;312;375;41;7;0;44178;6;0;352;33;8;0;44186;6;0;355;33;9;0;24383;6;0;378;30
13.06.19;21:05:00;1;297;7377;0;2;0;39295;6;0;368;36;3;1;25770;6;4;450;38;4;0;35043;1;0;206;36;5;7;74183;1;0;1;379;599;42;6;0;56300;23;6;2;269;525;41;7;0;44178;6;0;394;33;8;0;44186;6;0;397;33;9;1;24383;4;1;406;30
13.06.19;21:00:00;1;333;7352;0;2;0;39295;6;0;378;37;3;0;25770;6;5;459;38;4;0;35043;3;0;205;36;5;57;74183;1;0;15;362;573;43;6;0;56300;1;4;5;359;540;42;7;0;44178;4;2;412;34;8;0;44186;6;0;426;33;9;1;24383;6;2;444;30
13.06.19;20:55:00;1;333;7324;0;2;0;39295;6;0;388;38;3;0;25770;4;4;470;38;4;0;35043;3;0;203;37;5;93;74177;4;9;25;353;560;44;6;46;56300;1;17;28;326;449;43;7;1;44178;3;7;418;34;8;1;44186;3;8;417;34;9;1;24383;6;6;448;31
13.06.19;20:50:00;1;393;7296;0;2;46;39295;4;82;354;39;3;8;25770;3;22;460;39;4;3;35043;3;3;199;37;5;126;74169;4;26;41;353;560;44;6;68;56296;4;17;28;279;429;43;7;2;44178;6;9;440;34;8;4;44186;6;10;440;34;9;0;24383;6;6;481;31
13.06.19;20:45:00;1;273;7265;0;2;78;39292;4;116;354;39;3;17;25769;6;30;494;39;4;21;35043;3;22;198;37;5;165;74158;4;47;57;353;560;44;6;91;56290;4;47;72;279;429;43;7;19;44178;6;34;410;34;8;16;44186;6;34;414;34;9;2;24383;6;5;498;31
13.06.19;20:40:00;1;227;7244;0;2;156;39285;4;195;353;40;3;85;25768;4;124;457;40;4;55;35041;3;57;198;37;5;228;74144;4;84;90;353;560;44;6;126;56282;4;48;71;279;429;43;7;73;44176;4;104;362;35;8;73;44185;4;101;363;34;9;0;24382;6;0;537;32
13.06.19;20:35:00;1;235;7225;0;2;207;39272;4;246;354;40;3;122;25761;4;163;458;41;4;73;35037;3;76;199;38;5;243;74125;4;89;97;353;560;44;6;135;56272;4;56;85;279;429;43;7;96;44170;4;131;391;35;8;94;44179;4;131;394;35;9;13;24382;4;23;493;32
13.06.19;20:30:00;1;235;7205;0;2;244;39255;4;288;366;41;3;147;25751;4;190;470;41;4;87;35031;3;90;200;38;5;251;74105;4;93;97;353;560;44;6;139;56260;4;57;88;279;429;43;7;97;44162;4;129;362;35;8;95;44171;4;132;388;35;9;18;24381;3;30;489;32
13.06.19;20:25:00;1;236;7185;0;2;309;39235;4;357;367;42;3;190;25738;4;235;468;42;4;104;35024;5;108;206;38;5;277;74084;4;112;111;353;560;44;6;154;56249;4;62;99;279;429;43;7;122;44154;4;155;382;35;8;118;44163;4;153;383;35;9;30;24379;6;44;499;33
13.06.19;20:20:00;1;283;7165;0;2;380;39209;4;432;363;42;3;235;25723;4;282;464;42;4;126;35015;5;131;210;38;5;311;74060;4;126;123;353;560;44;6;171;56236;4;68;105;279;429;44;7;144;44144;4;180;382;35;8;142;44153;4;173;381;35;9;66;24377;4;99;443;33
13.06.19;20:15:00;1;395;7140;0;2;460;39178;4;514;368;43;3;287;25703;4;336;473;42;4;146;35005;5;152;208;39;5;336;74034;4;146;139;353;560;44;6;184;56221;4;66;102;279;429;44;7;169;44132;4;206;392;36;8;165;44141;4;201;392;36;9;81;24371;4;111;455;34
13.06.19;20:10:00;1;327;7108;0;2;536;39139;4;592;371;44;3;333;25679;4;383;470;43;4;156;34992;5;162;212;39;5;359;74006;4;161;144;354;560;45;6;196;56205;4;71;106;279;429;44;7;180;44118;4;221;403;36;8;171;44128;4;218;408;36;9;85;24365;4;117;457;34
13.06.19;20:05:00;1;330;7080;0;2;620;39095;4;678;374;44;3;381;25652;4;434;471;43;4;176;34979;5;183;210;39;5;379;73976;4;170;159;353;560;45;6;209;56189;4;81;127;279;429;44;7;203;44103;4;246;413;36;8;198;44113;4;239;417;36;9;97;24357;4;126;470;34
13.06.19;20:00:00;1;275;7053;0;2;709;39043;4;775;376;45;3;433;25620;4;488;465;44;4;193;34965;5;201;215;40;5;399;73945;4;176;167;353;560;45;6;218;56171;4;77;117;279;429;44;7;227;44086;4;277;425;36;8;225;44097;4;269;431;36;9;103;24349;4;135;476;34
13.06.19;19:55:00;1;231;7029;0;2;796;38984;4;863;379;46;3;487;25584;4;542;472;44;4;211;34949;5;220;216;40;5;426;73911;4;187;179;363;560;45;6;236;56153;4;97;144;279;436;44;7;272;44067;4;311;427;36;8;256;44078;4;300;430;36;9;108;24341;4;143;483;35
13.06.19;19:50:00;1;223;7010;0;2;889;38918;4;961;384;47;3;535;25544;4;592;460;45;4;230;34931;5;240;217;41;5;456;73875;4;206;190;373;574;45;6;268;56133;4;110;178;290;513;44;7;308;44045;4;358;436;37;8;287;44057;4;334;428;37;9;118;24332;4;155;464;35
13.06.19;19:45:00;1;2304;6941;0;2;989;38844;4;1067;384;47;3;584;25499;4;644;454;45;4;255;34912;5;266;219;41;5;478;73837;4;219;201;371;588;45;6;353;56110;4;190;211;491;513;44;7;357;44019;4;401;449;37;8;329;44033;4;377;433;37;9;137;24322;4;166;472;35
13.06.19;19:40:00;1;2349;6747;0;2;1105;38762;4;1185;379;48;3;640;25451;4;699;445;45;4;273;34891;5;285;227;42;5;508;73797;4;229;208;369;592;45;6;375;56080;4;156;169;523;510;44;7;420;43990;4;469;441;37;8;374;44006;4;424;437;37;9;157;24311;4;188;489;36
13.06.19;19:35:00;1;2425;6554;0;2;1067;38670;4;1143;375;49;3;617;25397;4;674;433;46;4;298;34868;5;311;231;42;5;529;73755;4;249;229;368;598;45;6;401;56049;4;222;240;517;514;45;7;491;43955;4;539;437;38;8;431;43975;4;479;429;38;9;165;24297;4;204;498;36
13.06.19;19:30:00;1;2240;6360;0;2;1282;38581;4;1369;376;50;3;710;25346;4;770;435;46;4;352;34843;5;367;232;43;5;578;73711;4;265;247;372;599;46;6;428;56015;4;204;216;513;515;45;7;531;43914;4;582;442;38;8;500;43939;4;551;439;38;9;187;24284;4;223;486;37
13.06.19;19:25:00;1;2132;6173;0;2;1335;38475;4;1432;389;50;3;757;25287;4;820;438;47;4;412;34814;5;429;219;43;5;595;73662;4;280;248;371;582;46;6;463;55979;4;213;231;543;512;45;7;647;43871;4;706;441;38;8;671;43898;4;724;436;38;9;200;24268;4;236;426;37
13.06.19;19:20:00;1;674;5997;0;2;1508;38364;4;1613;381;51;3;870;25224;4;940;446;47;4;663;34780;5;690;201;44;5;656;73612;4;312;273;384;621;46;6;497;55941;4;273;290;545;519;45;7;767;43817;4;825;444;39;8;779;43843;4;836;447;39;9;232;24252;4;264;368;38
13.06.19;19:15:00;1;330;5943;0;2;1618;38238;4;1727;374;52;3;932;25151;4;1001;436;48;4;947;34725;5;987;201;44;5;740;73557;4;349;310;385;621;46;6;561;55899;4;260;266;542;518;45;7;875;43753;4;940;441;39;8;872;43777;4;937;448;39;9;251;24232;4;283;363;38
13.06.19;19:10:00;1;364;5915;0;2;1700;38104;4;1813;384;52;3;989;25074;4;1064;443;48;4;1118;34647;5;1164;220;45;5;818;73495;4;389;350;383;618;46;6;624;55852;4;303;322;553;527;45;7;963;43681;4;1034;439;39;8;961;43705;4;1032;446;39;9;344;24211;4;381;354;39
13.06.19;19:05:00;1;318;5885;0;2;1792;37962;4;1909;381;53;3;1042;24992;4;1118;443;49;4;1226;34554;5;1277;222;45;5;915;73427;4;439;390;386;617;47;6;694;55799;4;333;338;551;530;45;7;1068;43600;4;1140;446;40;8;1068;43625;4;1133;442;40;9;395;24183;4;436;357;39
13.06.19;19:00:00;1;291;5859;0;2;1905;37813;4;2028;376;54;3;1114;24905;4;1191;442;49;4;1322;34452;5;1377;223;46;5;1029;73350;4;504;440;392;631;47;6;780;55740;4;377;384;555;526;46;7;1182;43511;4;1262;449;40;8;1195;43536;4;1273;447;40;9;473;24150;4;519;390;40
13.06.19;18:55:00;1;251;5834;0;2;2014;37654;4;2140;374;54;3;1182;24812;4;1263;460;50;4;1414;34342;5;1473;221;46;5;1148;73263;4;570;491;392;624;47;6;870;55675;4;442;444;561;530;46;7;1298;43413;4;1376;451;40;8;1318;43436;4;1395;445;40;9;614;24111;4;670;446;41
13.06.19;18:50:00;1;221;5813;0;2;2114;37486;4;2244;372;55;3;1266;24714;4;1350;448;50;4;1504;34224;5;1567;223;46;5;1281;73166;4;647;547;390;634;47;6;985;55601;4;508;508;560;536;46;7;1418;43305;4;1504;449;41;8;1431;43327;4;1514;445;41;9;703;24060;4;764;468;42
13.06.19;18:45:00;1;239;5795;0;2;2214;37311;4;2352;373;56;3;1349;24608;4;1433;452;51;4;1605;34099;5;1672;223;47;5;1430;73059;4;714;614;391;642;48;6;1098;55519;4;554;566;557;538;46;7;1525;43187;4;1620;445;41;8;1545;43208;4;1635;444;41;9;798;24001;4;866;480;42
13.06.19;18:40:00;1;341;5774;0;2;2312;37126;4;2453;373;56;3;1417;24496;4;1504;456;51;4;1688;33965;5;1758;224;47;5;1582;72939;4;803;680;392;639;48;6;1213;55427;4;634;624;561;540;46;7;1643;43060;4;1736;447;41;8;1658;43080;4;1749;444;42;9;880;23936;4;952;489;43
13.06.19;18:35:00;1;371;5745;0;2;2406;36933;4;2551;376;57;3;1472;24378;4;1565;462;51;4;1779;33825;5;1853;223;47;5;1742;72807;4;900;755;388;637;48;6;1344;55325;4;667;658;562;539;46;7;1765;42923;4;1869;442;42;8;1783;42942;4;1883;444;42;9;954;23862;4;1027;490;43
13.06.19;18:30:00;1;317;5714;0;2;2503;36734;4;2655;374;58;3;1502;24256;4;1614;452;52;4;1869;33677;5;1947;223;48;5;1907;72661;4;988;831;393;638;48;6;1460;55212;4;753;753;565;538;47;7;1878;42777;4;1981;444;42;8;1895;42793;4;1998;445;42;9;1013;23782;4;1090;495;44
13.06.19;18:25:00;1;273;5688;0;2;2638;36525;4;2792;372;58;3;1582;24131;4;1673;442;52;4;1983;33521;5;2065;224;48;5;2099;72501;4;1099;912;391;640;49;6;1614;55090;4;819;801;564;541;47;7;2013;42620;4;2129;442;42;8;2032;42635;4;2144;438;43;9;1094;23698;4;1171;488;44
13.06.19;18:20:00;1;235;5665;0;2;2715;36306;4;2872;371;59;3;1645;24000;4;1739;449;53;4;2062;33356;5;2148;220;48;5;2269;72325;4;1179;989;389;643;49;6;1741;54954;4;893;867;559;536;47;7;2133;42453;4;2252;441;43;8;2145;42467;4;2258;439;43;9;1157;23608;4;1238;489;45
13.06.19;18:15:00;1;224;5645;0;2;2812;36079;4;2981;369;59;3;1718;23863;4;1818;448;53;4;2146;33185;5;2236;221;49;5;2462;72135;4;1293;1075;389;633;49;6;1897;54808;4;995;989;563;540;47;7;2260;42275;4;2383;446;43;8;2277;42289;4;2395;442;44;9;1232;23512;4;1314;490;45
13.06.19;18:10:00;1;225;5627;0;2;2919;35845;4;3087;368;60;3;1809;23720;4;1917;464;53;4;2238;33006;5;2332;218;49;5;2686;71928;4;1406;1174;396;631;49;6;2066;54649;4;1084;1049;560;534;47;7;2384;42089;4;2512;441;44;8;2394;42099;4;2526;441;44;9;1298;23409;4;1386;490;46
13.06.19;18:05:00;1;279;5608;0;2;2954;35602;4;3131;370;60;3;1855;23569;4;1963;457;54;4;2285;32820;5;2380;218;49;5;2817;71704;4;1488;1231;392;633;50;6;2161;54476;4;1142;1107;558;537;47;7;2479;41889;4;2616;442;44;8;2492;41899;4;2630;437;44;9;1359;23300;4;1451;486;46
13.06.19;18:00:00;1;234;5584;0;2;3008;35356;4;3187;363;60;3;1889;23415;4;1997;458;54;4;2341;32629;5;2438;217;49;5;2953;71469;4;1572;1292;393;622;50;6;2285;54296;4;1140;1143;560;539;48;7;2557;41682;4;2698;441;44;8;2573;41691;4;2713;437;45;9;1397;23187;4;1491;484;46
13.06.19;17:55:00;1;264;5564;0;2;3077;35106;4;3261;363;61;3;1941;23258;4;2046;453;54;4;2406;32434;5;2506;216;49;5;3136;71221;4;1675;1380;392;627;50;6;2412;54104;4;1235;1202;554;532;48;7;2679;41470;4;2822;434;45;8;2683;41477;4;2832;430;45;9;1466;23070;4;1564;481;47
13.06.19;17:50:00;1;273;5542;0;2;3191;34849;4;3382;368;61;3;2009;23096;4;2127;452;55;4;2524;32233;5;2629;215;49;5;3350;70959;4;1791;1479;388;623;50;6;2571;53902;4;1359;1317;556;530;48;7;2802;41246;4;2958;430;45;8;2816;41253;4;2967;436;45;9;1537;22948;4;1637;485;47
13.06.19;17:45:00;1;265;5519;0;2;3267;34583;4;3463;362;62;3;2101;22929;4;2217;460;55;4;2599;32024;5;2707;215;49;5;3548;70678;4;1910;1566;387;624;50;6;2742;53686;4;1399;1359;552;536;48;7;2926;41013;4;3081;436;45;8;2938;41020;4;3087;434;46;9;1600;22820;4;1705;478;48
13.06.19;17:40:00;1;281;5497;0;2;3314;34311;4;3509;358;62;3;2125;22754;4;2246;464;55;4;2647;31807;5;2757;215;49;5;3693;70381;4;1973;1637;384;625;51;6;2851;53458;4;1442;1419;557;539;48;7;3001;40770;4;3161;434;46;8;3004;40774;4;3170;434;46;9;1654;22687;4;1755;479;48
13.06.19;17:35:00;1;301;5475;0;2;3403;34036;4;3601;355;62;3;2193;22577;4;2312;461;55;4;2728;31587;5;2841;212;49;5;3892;70073;4;2096;1720;386;623;51;6;3008;53219;4;1557;1510;550;534;48;7;3118;40520;4;3281;430;46;8;3135;40525;4;3300;436;46;9;1717;22549;4;1824;480;48
13.06.19;17:30:00;1;392;5449;0;2;3433;33751;4;3633;356;62;3;2203;22394;4;2332;461;56;4;2767;31360;5;2882;213;48;5;4032;69748;4;2171;1785;385;621;51;6;3113;52967;4;1601;1586;544;534;49;7;3184;40260;4;3352;435;46;8;3190;40264;4;3359;432;47;9;1758;22408;4;1867;478;49
13.06.19;17:25:00;1;346;5417;0;2;3521;33465;4;3732;360;63;3;2272;22210;4;2398;459;56;4;2838;31129;5;2956;211;48;5;4240;69411;4;2265;1857;384;624;51;6;3268;52708;4;1703;1677;544;535;49;7;3334;39995;4;3506;428;47;8;3343;39998;4;3518;429;47;9;1838;22260;4;1950;479;49
13.06.19;17:20:00;1;351;5388;0;2;3594;33172;4;3803;355;63;3;2308;22021;4;2440;450;56;4;2920;30893;5;3042;211;48;5;4442;69056;4;2399;1965;385;622;51;6;3416;52435;4;1768;1733;544;531;49;7;3438;39717;4;3613;427;47;8;3449;39720;4;3626;431;48;9;1899;22107;4;2012;480;49
13.06.19;17:15:00;1;349;5358;0;2;3607;32873;4;3816;355;63;3;2332;21829;4;2455;450;56;4;2964;30649;5;3087;211;48;5;4576;68684;4;2491;2027;382;618;51;6;3521;52150;4;1820;1782;541;528;49;7;3513;39431;4;3695;424;47;8;2957;39374;0;3106;351;40;9;1949;21950;4;2065;477;50
13.06.19;17:10:00;1;374;5329;0;2;3711;32573;4;3929;354;63;3;2422;21635;4;2549;460;56;4;3070;30403;5;3198;209;48;5;4828;68303;4;2625;2138;380;621;52;6;3716;51855;4;1927;1885;540;527;49;7;3619;39141;4;3806;424;48;8;3633;39141;4;3824;428;48;9;2008;21788;4;2127;470;50
13.06.19;17:05:00;1;391;5297;0;2;3728;32263;4;3945;357;63;3;2450;21433;4;2588;453;56;4;3103;30147;5;3232;209;49;5;4949;67900;4;2699;2193;384;617;52;6;3823;51544;4;1975;1921;543;525;49;7;3683;38837;4;3878;423;48;8;3706;38835;4;3895;422;48;9;2047;21622;4;2165;471;50
13.06.19;17:00:00;1;464;5265;0;2;3851;31952;4;4074;355;63;3;2537;21229;4;2672;453;56;4;3206;29888;5;3340;210;49;5;5196;67486;4;2836;2297;382;614;52;6;4013;51225;4;2061;2016;543;528;49;7;3798;38531;4;3999;422;48;8;3055;38526;4;3208;336;39;9;2111;21449;4;2230;467;51
13.06.19;16:55:00;1;392;5226;0;2;3905;31633;4;4126;352;63;3;2566;21018;4;2701;449;56;4;3272;29621;5;3408;208;49;5;5359;67052;4;2924;2377;380;617;51;6;4150;50889;4;2131;2082;540;526;50;7;3898;38214;4;4101;423;48;8;3921;38208;4;4119;420;49;9;2166;21273;4;2292;467;51
13.06.19;16:50:00;1;331;5193;0;2;3922;31306;4;4146;355;63;3;2590;20804;4;2730;450;56;4;3314;29348;5;3452;207;49;5;5513;66604;4;3003;2444;382;613;51;6;4230;50543;4;2187;2137;535;518;50;7;3981;37889;4;4184;419;49;8;4005;37881;4;4208;420;49;9;2219;21092;4;2346;471;52
13.06.19;16:45:00;1;326;5166;0;2;3995;30980;4;4224;354;63;3;2638;20588;4;2778;446;56;4;3399;29073;5;3541;209;50;5;5689;66144;4;3112;2526;375;612;51;6;4371;50189;4;2255;2178;536;519;50;7;4064;37557;4;4275;417;49;8;4089;37547;4;4302;420;50;9;2267;20908;4;2396;462;52
13.06.19;16:40:00;1;365;5139;0;2;4034;30648;4;4264;353;63;3;2668;20368;4;2811;446;55;4;3472;28790;5;3616;207;50;5;5878;65668;4;3218;2610;379;612;51;6;4493;49824;4;2337;2274;534;514;50;7;4153;37218;4;4363;419;49;8;4154;37207;4;4369;408;50;9;2304;20719;4;2439;467;52
13.06.19;16:35:00;1;283;5113;0;2;4063;30310;4;4296;356;62;3;2698;20146;4;2842;446;55;4;3523;28501;5;3670;209;50;5;6019;65178;4;3303;2667;376;602;50;6;4606;49449;4;2364;2320;529;512;50;7;4237;36872;4;4451;416;50;8;4236;36861;4;4456;413;50;9;2353;20527;4;2486;462;52
13.06.19;16:30:00;1;283;5089;0;2;4132;29973;4;4369;353;62;3;2738;19921;4;2882;450;55;4;3585;28207;5;3735;208;50;5;6190;64676;4;3385;2754;377;596;50;6;4742;49066;4;2446;2385;528;512;50;7;4325;36521;4;4544;413;50;8;4327;36508;4;4550;416;50;9;2401;20331;4;2538;466;53
13.06.19;16:25:00;1;375;5065;0;2;4178;29628;4;4415;354;62;3;2771;19693;4;2928;445;55;4;3615;27908;5;3766;207;50;5;6363;64159;4;3498;2825;373;596;50;6;4877;48668;4;2524;2448;528;512;50;7;4405;36159;4;4634;411;50;8;4407;36148;4;4632;414;50;9;2448;20133;4;2590;466;53
13.06.19;16:20:00;1;320;5033;0;2;4190;29279;4;4437;355;62;3;2795;19462;4;2951;445;55;4;3642;27607;5;3793;204;51;5;6508;63627;4;3586;2893;374;598;50;6;4992;48261;4;2591;2525;528;512;50;7;4475;35794;4;4705;408;50;8;3579;35781;4;3776;326;40;9;2500;19927;4;2638;459;53
13.06.19;16:15:00;1;321;5006;0;2;4191;28931;4;4433;353;62;3;2805;19229;4;2947;438;55;4;3677;27304;5;3831;203;51;5;6642;63084;4;3657;2957;371;593;50;6;5072;47844;4;2616;2551;523;506;50;7;4526;35419;4;4755;407;50;8;4542;35408;4;4781;410;51;9;2533;19718;4;2673;460;53
13.06.19;16:10:00;1;296;4979;0;2;4222;28582;4;4470;356;62;3;2843;18995;4;2988;439;55;4;3716;26997;5;3871;202;51;5;6784;62530;4;3749;3021;373;591;50;6;5208;47422;4;2703;2651;521;513;50;7;4606;35044;4;4840;408;50;8;4623;35030;4;4867;412;51;9;2581;19507;4;2726;459;53
13.06.19;16:05:00;1;280;4955;0;2;4263;28230;4;4513;355;63;3;2862;18758;4;3012;443;55;4;3746;26688;5;3902;202;51;5;6918;61964;4;3822;3087;370;589;50;6;5326;46986;4;2737;2689;525;509;50;7;4661;34659;4;4907;412;50;8;4693;34645;4;4932;409;51;9;2613;19292;4;2756;464;54
13.06.19;16:00:00;1;279;4931;0;2;4343;27876;4;4592;355;63;3;2909;18520;4;3056;436;55;4;3791;26376;5;3949;203;51;5;7058;61389;4;3896;3151;372;593;50;6;5459;46543;4;2796;2754;518;512;50;7;4744;34272;4;4990;406;51;8;4762;34254;4;5012;408;51;9;2662;19075;4;2808;459;54
13.06.19;15:55:00;1;325;4908;0;2;4370;27513;4;4624;355;63;3;2932;18278;4;3089;440;55;4;3832;26060;5;3992;200;51;5;7176;60799;4;3971;3211;368;587;49;6;5571;46088;4;2856;2822;523;510;50;7;4791;33875;4;5031;407;51;8;4809;33857;4;5058;409;51;9;2691;18853;4;2837;454;54
13.06.19;15:50:00;1;306;4881;0;2;4379;27149;4;4628;353;63;3;2939;18034;4;3089;440;55;4;3856;25741;5;4017;201;51;5;7300;60199;4;4027;3255;367;589;50;6;5642;45621;4;2899;2863;518;509;50;7;4830;33476;4;5070;398;51;8;4854;33456;4;5096;404;52;9;2708;18629;4;2857;459;54
13.06.19;15:45:00;1;306;4855;0;2;4447;26784;4;4693;352;63;3;2978;17789;4;3127;442;55;4;3919;25419;5;4082;201;51;5;7460;59591;4;4110;3335;365;592;49;6;5763;45150;4;2973;2924;519;512;50;7;4899;33074;4;5144;401;51;8;4924;33052;4;5168;404;52;9;2753;18403;4;2899;447;54
13.06.19;15:40:00;1;366;4828;0;2;4445;26413;4;4692;356;63;3;2988;17541;4;3147;446;55;4;3945;25093;5;4109;202;51;5;7592;58969;4;4199;3389;365;588;49;6;5871;44671;4;3017;2968;520;512;50;7;4969;32666;4;5221;406;51;8;4982;32642;4;5243;405;52;9;2791;18174;4;2940;451;55
13.06.19;15:35:00;1;391;4797;0;2;4416;26043;4;4664;354;63;3;2980;17291;4;3131;438;55;4;3954;24764;5;4118;200;51;5;7677;58335;4;4238;3429;363;583;49;6;5897;44181;4;3044;2997;511;503;50;7;4993;32256;4;5244;403;51;8;5018;32229;4;5279;406;52;9;2808;17943;4;2960;457;55